Date String (YYYY-MM-DD hh:mm:ss) UTC,Instrument flags,Ambient pressure (hPa),Sample flow (lpm),Bypass flow (lpm),Sample temperature (°C),Ambient temperature (°C),ASC tube jacket temperature (°C),LED temperature (°C),Box temperature (°C),Sample RH (%),Span deviation,Mass concentration (μg/m³),Mass concentration (μg/m³),Mass concentration (μg/m³)
DateTimeUTC,F1_M11,P_M11,Q1_M11,Q2_M11,T1_M11,T2_M11,T3_M11,T4_M11,T5_M11,U1_M11,ZSPAN_M11,X0_M11,X2_M11,X1_M11
2022-06-23 01:00:00,,0828.7,5.00,0.00,29.0,27.1,00.0,37.8,30.8,16.9,0000.0,0019.25,0005.23,0003.47
2022-06-23 01:01:00,,0828.5,5.01,0.00,29.0,27.3,00.0,37.8,30.9,16.8,0000.0,0019.48,0005.24,0003.47
2022-06-23 01:02:00,,0828.7,4.99,0.00,29.0,27.5,00.0,37.8,30.9,16.7,0000.0,0019.57,0005.24,0003.46
2022-06-23 01:03:00,,0828.7,4.99,0.00,29.0,27.7,00.0,37.8,31.0,17.1,0000.0,0019.80,0005.28,0003.46
2022-06-23 01:04:00,,0829.0,5.01,0.00,29.1,27.9,00.0,37.8,31.1,16.8,0000.0,0018.29,0005.25,0003.45
2022-06-23 01:05:00,,0828.8,5.00,0.00,29.1,28.0,00.0,37.8,31.1,16.8,0000.0,0018.12,0005.23,0003.44
2022-06-23 01:06:00,,0828.8,4.99,0.00,29.1,28.2,00.0,37.8,31.2,16.7,0000.0,0018.21,0005.20,0003.44
2022-06-23 01:07:00,,0828.9,5.00,0.00,29.2,28.3,00.0,37.9,31.2,16.8,0000.0,0017.69,0005.21,0003.45
2022-06-23 01:08:00,,0828.8,5.01,0.00,29.2,28.4,00.0,37.9,31.3,16.6,0000.0,0017.75,0005.19,0003.45
2022-06-23 01:09:00,,0829.1,5.01,0.00,29.2,27.9,00.0,37.9,31.2,16.6,0000.0,0017.96,0005.19,0003.45
2022-06-23 01:10:00,,0829.1,5.00,0.00,29.2,27.1,00.0,37.8,31.0,16.5,0000.0,0017.98,0005.17,0003.44
2022-06-23 01:11:00,,0829.1,4.98,0.00,29.1,26.9,00.0,37.8,30.8,16.6,0000.0,0018.41,0005.16,0003.44
2022-06-23 01:12:00,,0829.0,5.00,0.00,29.0,27.0,00.0,37.8,30.8,16.5,0000.0,0018.18,0005.14,0003.44
2022-06-23 01:13:00,,0829.1,5.00,0.00,29.0,27.1,00.0,37.8,30.8,16.5,0000.0,0017.30,0005.17,0003.44
2022-06-23 01:14:00,,0829.0,5.01,0.00,29.0,27.3,00.0,37.8,30.9,16.4,0000.0,0017.21,0005.13,0003.43
2022-06-23 01:15:00,,0829.0,5.00,0.00,29.0,27.4,00.0,37.8,30.9,16.3,0000.0,0017.24,0005.08,0003.43
2022-06-23 01:16:00,,0828.9,5.01,0.00,29.0,27.6,00.0,37.8,31.0,16.5,0000.0,0018.27,0005.02,0003.42
2022-06-23 01:17:00,,0828.9,5.00,0.00,29.1,27.8,00.0,37.8,31.0,16.7,0000.0,0018.51,0005.00,0003.43
2022-06-23 01:18:00,,0828.9,5.00,0.00,29.1,28.0,00.0,37.8,31.1,16.8,0000.0,0018.46,0004.98,0003.42
2022-06-23 01:19:00,,0828.6,5.00,0.00,29.1,28.2,00.0,37.8,31.2,17.1,0000.0,0018.30,0004.98,0003.42
2022-06-23 01:20:00,,0829.0,4.99,0.00,29.2,28.3,00.0,37.9,31.2,17.2,0000.0,0017.67,0004.94,0003.41
2022-06-23 01:21:00,,0828.9,5.01,0.00,29.2,28.4,00.0,37.9,31.3,17.0,0000.0,0016.47,0004.97,0003.42
2022-06-23 01:22:00,,0829.0,5.01,0.00,29.3,28.5,00.0,37.9,31.3,17.0,0000.0,0016.75,0004.97,0003.41
2022-06-23 01:23:00,,0828.8,4.99,0.00,29.3,27.9,00.0,37.9,31.1,16.9,0000.0,0018.34,0004.99,0003.41
2022-06-23 01:24:00,,0828.5,5.00,0.00,29.2,27.2,00.0,37.8,30.9,16.8,0000.0,0018.21,0004.93,0003.42
2022-06-23 01:25:00,,0828.4,5.01,0.00,29.1,27.0,00.0,37.8,30.9,16.2,0000.0,0018.96,0004.93,0003.43
2022-06-23 01:26:00,,0828.5,5.00,0.00,29.1,27.0,00.0,37.8,30.8,16.3,0000.0,0019.50,0004.97,0003.46
2022-06-23 01:27:00,,0828.6,4.99,0.00,29.0,27.2,00.0,37.8,30.9,16.1,0000.0,0018.48,0005.03,0003.46
2022-06-23 01:28:00,,0828.5,5.00,0.00,29.0,27.3,00.0,37.8,30.9,16.0,0000.0,0017.53,0005.08,0003.46
2022-06-23 01:29:00,,0828.5,5.00,0.00,29.0,27.5,00.0,37.8,31.0,16.1,0000.0,0017.33,0005.05,0003.47
2022-06-23 01:30:00,,0828.5,5.00,0.00,29.1,27.7,00.0,37.8,31.0,16.1,0000.0,0017.94,0005.02,0003.47
2022-06-23 01:31:00,,0828.5,5.01,0.00,29.1,27.9,00.0,37.8,31.1,16.1,0000.0,0019.12,0004.99,0003.47
2022-06-23 01:32:00,,0828.5,4.99,0.00,29.1,28.1,00.0,37.9,31.1,16.0,0000.0,0019.62,0005.01,0003.47
2022-06-23 01:33:00,,0828.5,4.99,0.00,29.2,28.2,00.0,37.9,31.2,16.0,0000.0,0018.39,0004.98,0003.49
2022-06-23 01:34:00,,0828.5,5.01,0.00,29.2,28.3,00.0,37.9,31.3,16.0,0000.0,0016.77,0004.98,0003.51
2022-06-23 01:35:00,,0828.5,5.00,0.00,29.3,28.5,00.0,37.9,31.3,15.9,0000.0,0018.26,0005.05,0003.53
2022-06-23 01:36:00,,0828.4,4.98,0.00,29.3,28.5,00.0,38.0,31.3,16.0,0000.0,0017.31,0005.07,0003.54
2022-06-23 01:37:00,,0828.4,5.00,0.00,29.3,27.7,00.0,37.9,31.2,16.1,0000.0,0017.26,0005.11,0003.54
2022-06-23 01:38:00,,0828.4,5.01,0.00,29.2,27.1,00.0,37.9,30.9,16.3,0000.0,0017.51,0005.18,0003.55
2022-06-23 01:39:00,,0828.4,4.99,0.00,29.1,26.9,00.0,37.8,30.9,16.4,0000.0,0018.64,0005.21,0003.57
2022-06-23 01:40:00,,0828.3,5.00,0.00,29.1,27.0,00.0,37.8,30.9,16.6,0000.0,0019.99,0005.30,0003.58
2022-06-23 01:41:00,,0828.4,5.01,0.00,29.1,27.1,00.0,37.8,30.9,16.8,0000.0,0019.78,0005.35,0003.60
2022-06-23 01:42:00,,0828.4,5.00,0.00,29.1,27.3,00.0,37.8,30.9,16.9,0000.0,0019.36,0005.42,0003.62
2022-06-23 01:43:00,,0828.3,5.01,0.00,29.1,27.5,00.0,37.8,31.0,17.1,0000.0,0019.59,0005.40,0003.63
2022-06-23 01:44:00,,0828.3,5.01,0.00,29.1,27.7,00.0,37.9,31.0,17.0,0000.0,0021.06,0005.45,0003.63
2022-06-23 01:45:00,,0828.4,4.99,0.00,29.1,27.9,00.0,37.9,31.1,16.8,0000.0,0021.98,0005.48,0003.61
2022-06-23 01:46:00,,0828.4,5.00,0.00,29.2,28.1,00.0,37.9,31.2,17.0,0000.0,0020.23,0005.48,0003.60
2022-06-23 01:47:00,,0828.4,5.01,0.00,29.2,28.2,00.0,37.9,31.2,17.1,0000.0,0020.90,0005.47,0003.59
2022-06-23 01:48:00,,0828.3,4.99,0.00,29.2,28.3,00.0,37.9,31.3,17.0,0000.0,0021.07,0005.48,0003.58
2022-06-23 01:49:00,,0828.3,5.01,0.00,29.3,28.5,00.0,38.0,31.3,16.9,0000.0,0021.21,0005.40,0003.57
2022-06-23 01:50:00,,0828.3,5.02,0.00,29.3,28.0,00.0,37.9,31.2,16.9,0000.0,0020.59,0005.37,0003.56
2022-06-23 01:51:00,,0828.3,4.99,0.00,29.2,27.2,00.0,37.9,31.0,17.0,0000.0,0019.99,0005.35,0003.55
2022-06-23 01:52:00,,0828.3,5.00,0.00,29.2,26.9,00.0,37.8,30.9,17.0,0000.0,0020.20,0005.35,0003.55
2022-06-23 01:53:00,,0828.3,5.01,0.00,29.1,26.9,00.0,37.8,30.8,17.1,0000.0,0020.29,0005.34,0003.55
2022-06-23 01:54:00,,0828.3,5.00,0.00,29.1,27.0,00.0,37.8,30.8,17.2,0000.0,0020.38,0005.39,0003.56
2022-06-23 01:55:00,,0828.3,5.00,0.00,29.1,27.2,00.0,37.8,30.9,17.2,0000.0,0019.35,0005.37,0003.56
2022-06-23 01:56:00,,0828.2,4.99,0.00,29.1,27.4,00.0,37.8,30.9,17.4,0000.0,0019.03,0005.32,0003.57
2022-06-23 01:57:00,,0828.3,5.00,0.00,29.1,27.6,00.0,37.8,31.0,17.3,0000.0,0020.55,0005.27,0003.59
2022-06-23 01:58:00,,0828.3,5.01,0.00,29.1,27.8,00.0,37.9,31.1,17.4,0000.0,0020.49,0005.25,0003.58
2022-06-23 01:59:00,,0828.3,4.99,0.00,29.1,28.0,00.0,37.9,31.1,17.3,0000.0,0020.12,0005.19,0003.59
